Location: Most
(50.5133°N, 13.6207°E)
Time: 17:00:14
(UTC+02:00)

Nauka - Pass Details

Date: 25 September 2021
Orbit: 417 x 423 km, 51.6° (Epoch: 26 October)

Event Time Altitude Azimuth Distance (km) Brightness Sun altitude
Rises 21:45:42 0° 284° (WNW) 2,368 ? -26.3°
Reaches altitude 10° 21:47:48 10° 284° (WNW) 1,503 ? -26.6°
Enters shadow 21:49:13 23° 282° (WNW) 942 ? -26.7°
